Tracking 19817 objects as of 18-Aug-2019
HD Live streaming from Space Station
objects crossing your sky now

EKRAN 4

Track EKRAN 4 now!
EKRAN 4 is classified as:


NORAD ID: 11561
Int'l Code: 1979-087A
Perigee: 35,738.6 km
Apogee: 35,822.7 km
Inclination: 11.4 °
Period: 1,435.4 minutes
Semi major axis: 42151 km
RCS: 0.1995 m2 (medium)
Launch date: October 3, 1979
Source: Commonwealth of Independent States (former USSR) (CIS)
Launch site: TYURATAM MISSILE AND SPACE COMPLEX (TTMTR)
aabbcc
Your satellite tracking list
Your tracking list is empty




NASA's NSSDC Master Catalog

Two Line Element Set (TLE):
1 11561U 79087A   19228.76805159 -.00000193  00000-0  00000+0 0  9991
2 11561  11.4084 313.4680 0009979 142.5707 229.3217  1.00318538107899
Source of the keplerian elements: AFSPC